Powrót do katalogu

ATLAS 2A CENTAUR R/B

AktywnyGTO
NORAD 24675·ROCKET BODY·🇺🇸 United States

Wystrzelony Dec 18, 1996 z Cape Canaveral Space Force Station

Loading…

TLE

Starzejące sięSource: Space-Track

Epoka: Sep 14, 2026, 05:34 UTC

1 24675U 96070B   26257.23213321 -.00000177  00000-0  00000-0 0  9991
2 24675  22.3463 121.0024 6989472  43.8676  91.1250  2.22634546241903

Śledź ATLAS 2A CENTAUR R/B w czasie rzeczywistym z AllMySat

Download on the App Store